Search for airport 
image banner adimage banner ad
image banner ad

EVAD - Adazi

Located in Adazi, Latvia

ICAO - EVAD, IATA -

Data provided by Airmate  

General information

Coordinates: N57°5'55" E24°15'60"
Elevation is 8 feet MSL.
Magnetic variation is 5° East
Rated:
View ratings: [VIEW]


View others Airports in Riga District

Operational data

Open for public use
Current time UTC:
Current local time:
Weather at : EVRA - Riga ( 26 km )
METAR: EVRA 210320Z VRB01KT 3200 -RA BR SCT003 BKN005 OVC042 12/12 Q1015 R18/290195 NOSIG
TAF: TAF AMD EVRA 210332Z 2103/2203 VRB02KT 3000 -RA BR BKN005 OVC030 TEMPO 2103/2106 5000 OVC010 BECMG 2106/2108 8000 NSW BKN030 PROB40 TEMPO 2116/2122 0700 FG TEMPO 2200/2203 BKN005
View NOTAMs / SUP AIP / TFR affecting this airport [VIEW]
Communications frequencies: [VIEW]

Runways:

RWY identifierQFULength (ft)Width (ft)SurfaceLDA (ft)
15155°193649ASP+GRS1667
33335°193649ASP+GRS1568

Airport contact information

Address: Adazi Latvia

Other aviation service providers

Flight schools

Tmg

Tmg
info@tmg-ato.com+37129259085

Aviation club (not for profit)

First Fly

First Fly

Satellite view of EVAD